{"data":{"norad_id":57768,"intl_designator":"2023-133M","name":"WILDFIRE 8","alt_names":[],"object_type":"PAYLOAD","status":"ACTIVE","operator":null,"country":"US","launch_date":"2023-09-02","launch_site_code":"AFWTR","launch_vehicle":null,"mission":null,"orbit_class":"UNKNOWN","rcs_meters":null,"size_class":null,"mass_kg":null,"dimensions":null,"purposes":[],"wikipedia_slug":null,"has_3d_model":false,"image_url":null,"decayed_at":null,"tle_current":{"epoch":"2026-09-22T17:53:19.792608Z","epoch_age_seconds":112152,"freshness":"FRESH","line1":"1 57768U 23133M   26265.74536797  .00000091  00000+0  69994-4 0  9994","line2":"2 57768  80.9913 273.2402 0007139 107.1536 253.0403 13.85455992154545","mean_motion":13.85455992,"eccentricity":0.0007139,"inclination_deg":80.9913,"raan_deg":273.2402,"arg_perigee_deg":107.1536,"mean_anomaly_deg":253.0403,"bstar":6.9994e-5,"rev_number":15454,"period_min":103.93689935407,"perigee_km":939.37085965032,"apogee_km":949.8262614837,"semimajor_km":7322.735560567,"source":"CELESTRAK","updated_at":"2026-09-23T09:00:18.339997Z"}}}